Date String (YYYY-MM-DD hh:mm:ss) UTC,Instrument flags,Ambient pressure (hPa),Sample flow (lpm),Bypass flow (lpm),Sample temperature (°C),Ambient temperature (°C),ASC tube jacket temperature (°C),LED temperature (°C),Box temperature (°C),Sample RH (%),Span deviation,Mass concentration (μg/m³),Mass concentration (μg/m³),Mass concentration (μg/m³)
DateTimeUTC,F1_M11,P_M11,Q1_M11,Q2_M11,T1_M11,T2_M11,T3_M11,T4_M11,T5_M11,U1_M11,ZSPAN_M11,X0_M11,X2_M11,X1_M11
2021-09-29 23:00:00,,0827.7,5.00,0.00,30.4,29.6,00.0,39.5,32.2,23.2,0000.0,0012.93,0004.98,0004.07
2021-09-29 23:01:00,,0827.7,4.99,0.00,30.4,29.6,00.0,39.5,32.2,23.2,0000.0,0012.87,0004.97,0004.07
2021-09-29 23:02:00,,0827.7,5.01,0.00,30.4,29.6,00.0,39.5,32.2,23.5,0000.0,0012.46,0004.96,0004.07
2021-09-29 23:03:00,,0827.7,4.99,0.00,30.5,29.6,00.0,39.5,32.2,23.7,0000.0,0011.52,0004.96,0004.09
2021-09-29 23:04:00,,0827.7,5.00,0.00,30.4,28.5,00.0,39.5,31.9,23.7,0000.0,0011.20,0004.98,0004.09
2021-09-29 23:05:00,,0827.7,5.00,0.00,30.2,26.7,00.0,39.4,31.4,24.1,0000.0,0011.01,0005.06,0004.12
2021-09-29 23:06:00,,0827.7,4.99,0.00,30.1,26.3,00.0,39.4,31.3,24.2,0000.0,0010.96,0005.14,0004.14
2021-09-29 23:07:00,,0827.7,5.00,0.00,30.0,26.7,00.0,39.3,31.3,24.4,0000.0,0011.02,0005.19,0004.14
2021-09-29 23:08:00,,0827.7,4.99,0.00,29.9,27.1,00.0,39.3,31.4,24.4,0000.0,0011.43,0005.21,0004.14
2021-09-29 23:09:00,,0827.7,5.01,0.00,29.9,27.5,00.0,39.2,31.4,24.4,0000.0,0011.31,0005.19,0004.14
2021-09-29 23:10:00,,0827.7,5.00,0.00,29.9,27.9,00.0,39.2,31.5,24.4,0000.0,0011.22,0005.21,0004.14
2021-09-29 23:11:00,,0827.7,4.99,0.00,29.9,28.1,00.0,39.2,31.5,24.3,0000.0,0010.96,0005.20,0004.13
2021-09-29 23:12:00,,0827.8,5.00,0.00,29.9,28.3,00.0,39.1,31.6,24.0,0000.0,0010.70,0005.23,0004.12
2021-09-29 23:13:00,,0827.9,5.01,0.00,29.9,28.5,00.0,39.1,31.6,23.6,0000.0,0010.79,0005.24,0004.12
2021-09-29 23:14:00,,0827.9,5.00,0.00,29.9,28.7,00.0,39.1,31.6,23.5,0000.0,0010.66,0005.27,0004.11
2021-09-29 23:15:00,,0827.9,5.00,0.00,30.0,28.8,00.0,39.1,31.7,23.9,0000.0,0010.76,0005.31,0004.11
2021-09-29 23:16:00,,0827.8,5.00,0.00,30.0,28.9,00.0,39.1,31.8,23.5,0000.0,0010.82,0005.23,0004.09
2021-09-29 23:17:00,,0827.8,5.00,0.00,30.0,29.0,00.0,39.1,31.7,23.3,0000.0,0011.76,0005.20,0004.06
2021-09-29 23:18:00,,0827.9,5.01,0.00,30.0,29.0,00.0,39.1,31.8,23.2,0000.0,0012.10,0005.21,0004.05
2021-09-29 23:19:00,,0827.8,4.99,0.00,30.1,29.1,00.0,39.2,31.9,23.1,0000.0,0012.46,0005.22,0004.05
2021-09-29 23:20:00,,0827.8,5.00,0.00,30.1,29.1,00.0,39.2,31.9,23.0,0000.0,0012.82,0005.18,0004.02
2021-09-29 23:21:00,,0827.9,5.02,0.00,30.1,29.2,00.0,39.2,31.9,22.5,0000.0,0012.99,0005.15,0004.00
2021-09-29 23:22:00,,0827.7,4.99,0.00,30.1,29.2,00.0,39.2,31.9,22.9,0000.0,0013.36,0005.09,0003.98
2021-09-29 23:23:00,,0827.7,5.00,0.00,30.1,29.3,00.0,39.2,31.9,23.3,0000.0,0013.70,0005.05,0003.98
2021-09-29 23:24:00,,0827.7,5.01,0.00,30.2,29.3,00.0,39.2,32.0,23.0,0000.0,0013.87,0005.06,0003.97
2021-09-29 23:25:00,,0827.7,4.99,0.00,30.2,29.3,00.0,39.2,32.0,23.0,0000.0,0014.42,0005.01,0003.95
2021-09-29 23:26:00,,0827.7,4.99,0.00,30.2,29.3,00.0,39.2,32.0,22.7,0000.0,0014.99,0004.97,0003.94
2021-09-29 23:27:00,,0827.7,5.01,0.00,30.2,29.4,00.0,39.3,32.0,22.9,0000.0,0015.39,0004.95,0003.93
2021-09-29 23:28:00,,0827.7,4.99,0.00,30.2,29.4,00.0,39.3,32.0,23.1,0000.0,0014.54,0004.93,0003.93
2021-09-29 23:29:00,,0827.7,5.00,0.00,30.3,29.4,00.0,39.3,32.0,22.9,0000.0,0014.42,0004.88,0003.93
2021-09-29 23:30:00,,0827.7,5.01,0.00,30.3,29.4,00.0,39.3,32.0,22.7,0000.0,0014.30,0004.87,0003.93
2021-09-29 23:31:00,,0827.7,5.00,0.00,30.3,29.5,00.0,39.3,32.0,22.6,0000.0,0013.84,0004.85,0003.94
2021-09-29 23:32:00,,0827.7,5.01,0.00,30.3,29.5,00.0,39.3,32.0,22.5,0000.0,0013.62,0004.85,0003.94
2021-09-29 23:33:00,,0827.7,4.99,0.00,30.3,29.5,00.0,39.3,32.1,22.7,0000.0,0013.16,0004.84,0003.92
2021-09-29 23:34:00,,0827.7,5.00,0.00,30.3,29.5,00.0,39.4,32.1,22.7,0000.0,0013.02,0004.84,0003.91
2021-09-29 23:35:00,,0827.7,5.01,0.00,30.3,29.5,00.0,39.4,32.1,23.0,0000.0,0012.78,0004.79,0003.91
2021-09-29 23:36:00,,0827.8,4.99,0.00,30.4,29.6,00.0,39.4,32.1,22.9,0000.0,0012.19,0004.79,0003.90
2021-09-29 23:37:00,,0827.9,5.00,0.00,30.4,29.6,00.0,39.4,32.1,22.9,0000.0,0011.43,0004.78,0003.90
2021-09-29 23:38:00,,0827.9,5.00,0.00,30.4,29.6,00.0,39.4,32.1,22.4,0000.0,0011.06,0004.76,0003.90
2021-09-29 23:39:00,,0827.9,5.02,0.00,30.4,29.6,00.0,39.4,32.1,22.2,0000.0,0010.99,0004.77,0003.90
2021-09-29 23:40:00,,0827.8,5.00,0.00,30.4,29.6,00.0,39.4,32.1,22.3,0000.0,0011.45,0004.78,0003.90
2021-09-29 23:41:00,,0827.9,4.99,0.00,30.4,29.6,00.0,39.5,32.2,22.0,0000.0,0010.78,0004.74,0003.89
2021-09-29 23:42:00,,0828.0,5.01,0.00,30.4,29.6,00.0,39.5,32.2,22.3,0000.0,0010.65,0004.71,0003.88
2021-09-29 23:43:00,,0828.0,5.00,0.00,30.4,29.7,00.0,39.5,32.2,22.5,0000.0,0010.65,0004.69,0003.88
2021-09-29 23:44:00,,0828.0,4.99,0.00,30.4,29.7,00.0,39.5,32.2,22.4,0000.0,0010.65,0004.68,0003.88
2021-09-29 23:45:00,,0828.0,5.00,0.00,30.5,29.7,00.0,39.5,32.2,22.3,0000.0,0010.65,0004.66,0003.88
2021-09-29 23:46:00,,0828.0,4.99,0.00,30.5,29.7,00.0,39.5,32.2,22.4,0000.0,0010.44,0004.68,0003.87
2021-09-29 23:47:00,,0828.0,5.00,0.00,30.5,29.7,00.0,39.5,32.2,22.3,0000.0,0010.44,0004.67,0003.87
2021-09-29 23:48:00,,0828.0,5.01,0.00,30.5,29.7,00.0,39.5,32.2,22.0,0000.0,0010.48,0004.66,0003.85
2021-09-29 23:49:00,,0828.0,4.99,0.00,30.5,29.7,00.0,39.5,32.2,22.1,0000.0,0010.15,0004.66,0003.84
2021-09-29 23:50:00,,0828.0,5.01,0.00,30.5,29.7,00.0,39.6,32.2,21.8,0000.0,0010.02,0004.68,0003.83
2021-09-29 23:51:00,,0828.0,5.00,0.00,30.5,29.7,00.0,39.6,32.2,21.7,0000.0,0009.29,0004.64,0003.82
2021-09-29 23:52:00,,0828.0,4.99,0.00,30.5,29.7,00.0,39.6,32.3,21.4,0000.0,0009.43,0004.66,0003.82
2021-09-29 23:53:00,,0828.0,5.01,0.00,30.5,29.7,00.0,39.6,32.3,21.2,0000.0,0009.27,0004.62,0003.81
2021-09-29 23:54:00,,0827.9,5.01,0.00,30.5,29.7,00.0,39.6,32.3,21.3,0000.0,0009.10,0004.59,0003.79
2021-09-29 23:55:00,,0828.0,4.99,0.00,30.5,29.7,00.0,39.6,32.3,20.6,0000.0,0008.87,0004.59,0003.79
2021-09-29 23:56:00,,0828.0,4.99,0.00,30.5,29.7,00.0,39.6,32.3,21.0,0000.0,0008.54,0004.56,0003.78
2021-09-29 23:57:00,,0828.0,5.01,0.00,30.6,29.7,00.0,39.6,32.3,20.8,0000.0,0008.49,0004.49,0003.77
2021-09-29 23:58:00,,0828.0,5.00,0.00,30.6,29.7,00.0,39.6,32.3,21.0,0000.0,0008.47,0004.47,0003.77
2021-09-29 23:59:00,,0828.0,5.00,0.00,30.6,29.7,00.0,39.7,32.3,21.0,0000.0,0008.33,0004.44,0003.76
